AUA38A LOWW-LICC

Flight info

Callsign AUA38A
Flight time 1h 43m
Altitude 33000
Route STEIN3C/29 STEIN DCT NOHAT DCT NEKIN DCT NIVES/N0453F340 DCT RASTU DCT PALEZ/N0453F330 DCT MOLUX/N0452F350 DCT NERAR DCT VAKOR DCT PELEN DCT UXUTA UXUTA1H
Aircraft A321/M-SDE3FGHIRWY/LB1

Departure

Time 2026-04-25 17:40
Airport Vienna International Airport (LOWW)

Arrival

Time 2026-04-25 19:24
Airport Catania-Fontanarossa Airport (LICC)
Time Latitude Longitude Altitude Speed Heading
2026-04-25 17:19 48.11848 16.56932 608 ft 0 kts 206°
2026-04-25 17:29 48.11858 16.56940 608 ft 2 kts 205°
2026-04-25 17:29 48.11872 16.56949 608 ft 2 kts 206°
2026-04-25 17:29 48.11886 16.56959 607 ft 2 kts 206°
2026-04-25 17:30 48.11899 16.56969 607 ft 2 kts 206°
2026-04-25 17:30 48.11912 16.56978 607 ft 2 kts 206°
2026-04-25 17:30 48.11921 16.56985 607 ft 2 kts 206°
2026-04-25 17:30 48.11936 16.56988 607 ft 2 kts 170°
2026-04-25 17:31 48.11950 16.56980 608 ft 2 kts 143°
2026-04-25 17:31 48.11958 16.56967 608 ft 0 kts 120°
2026-04-25 17:31 48.11959 16.56963 608 ft 0 kts 116°
2026-04-25 17:33 48.11958 16.56969 608 ft 3 kts 116°
2026-04-25 17:33 48.11935 16.57041 607 ft 10 kts 116°
2026-04-25 17:33 48.11891 16.57166 608 ft 14 kts 128°
2026-04-25 17:33 48.11825 16.57296 607 ft 17 kts 122°
2026-04-25 17:34 48.11734 16.57375 608 ft 13 kts 162°
2026-04-25 17:34 48.11586 16.57438 608 ft 26 kts 165°
2026-04-25 17:34 48.11431 16.57418 608 ft 20 kts 207°
2026-04-25 17:34 48.11355 16.57359 608 ft 7 kts 208°
2026-04-25 17:35 48.11303 16.57321 608 ft 11 kts 205°
2026-04-25 17:35 48.11225 16.57265 608 ft 12 kts 206°
2026-04-25 17:35 48.11171 16.57227 608 ft 4 kts 206°
2026-04-25 17:35 48.11165 16.57222 608 ft 0 kts 206°
2026-04-25 17:37 48.11164 16.57222 607 ft 0 kts 206°
2026-04-25 17:38 48.11150 16.57212 607 ft 4 kts 206°
2026-04-25 17:38 48.11118 16.57188 607 ft 11 kts 207°
2026-04-25 17:38 48.11055 16.57103 607 ft 3 kts 281°
2026-04-25 17:38 48.11058 16.57092 607 ft 0 kts 295°
2026-04-25 17:39 48.11136 16.56851 608 ft 60 kts 296°
2026-04-25 17:40 48.11417 16.55989 608 ft 124 kts 296°
2026-04-25 17:40 48.11875 16.54584 703 ft 167 kts 295°
2026-04-25 17:40 48.12358 16.53009 1307 ft 168 kts 287°
2026-04-25 17:40 48.12222 16.51323 1972 ft 176 kts 240°
2026-04-25 17:41 48.11235 16.50227 2578 ft 183 kts 214°
2026-04-25 17:41 48.10086 16.49319 2839 ft 194 kts 216°
2026-04-25 17:41 48.08886 16.48280 3095 ft 206 kts 217°
2026-04-25 17:41 48.07516 16.47405 3342 ft 228 kts 197°
2026-04-25 17:42 48.05854 16.47404 3543 ft 252 kts 178°
2026-04-25 17:42 48.04040 16.47765 3837 ft 269 kts 176°
2026-04-25 17:42 48.02147 16.48176 4199 ft 282 kts 175°
2026-04-25 17:42 48.00191 16.48584 4811 ft 285 kts 175°
2026-04-25 17:43 47.98245 16.48983 5462 ft 287 kts 175°
2026-04-25 17:43 47.96265 16.49383 6115 ft 289 kts 175°
2026-04-25 17:43 47.94266 16.49786 6775 ft 290 kts 175°
2026-04-25 17:43 47.92273 16.50189 7428 ft 292 kts 175°
2026-04-25 17:44 47.90253 16.50597 8063 ft 295 kts 175°
2026-04-25 17:44 47.88213 16.51007 8697 ft 296 kts 176°
2026-04-25 17:44 47.86175 16.51414 9300 ft 299 kts 176°
2026-04-25 17:44 47.84116 16.51824 9896 ft 302 kts 176°
2026-04-25 17:45 47.82023 16.52240 10404 ft 308 kts 176°
2026-04-25 17:45 47.81307 16.52382 10498 ft 313 kts 176°
2026-04-25 17:45 47.77575 16.53118 10933 ft 336 kts 175°
2026-04-25 17:45 47.75200 16.53589 11214 ft 350 kts 175°
2026-04-25 17:46 47.72771 16.54071 11464 ft 363 kts 175°
2026-04-25 17:46 47.70226 16.54578 11810 ft 373 kts 175°
2026-04-25 17:46 47.67634 16.55094 12323 ft 376 kts 175°
2026-04-25 17:46 47.65070 16.55605 12854 ft 378 kts 175°
2026-04-25 17:47 47.62462 16.56123 13370 ft 380 kts 175°
2026-04-25 17:47 47.59819 16.56645 13870 ft 383 kts 175°
2026-04-25 17:47 47.57189 16.57162 14364 ft 385 kts 175°
2026-04-25 17:47 47.54507 16.57688 14871 ft 387 kts 175°
2026-04-25 17:48 47.49131 16.58745 15793 ft 393 kts 175°
2026-04-25 17:48 47.46422 16.59277 16242 ft 395 kts 175°
2026-04-25 17:48 47.43696 16.59787 16700 ft 397 kts 177°
2026-04-25 17:49 47.40963 16.60088 17108 ft 399 kts 181°
2026-04-25 17:49 47.38150 16.60221 17536 ft 401 kts 182°
2026-04-25 17:49 47.35358 16.60340 17943 ft 403 kts 182°
2026-04-25 17:49 47.32587 16.60457 18366 ft 405 kts 182°
2026-04-25 17:50 47.29759 16.60577 18797 ft 406 kts 182°
2026-04-25 17:50 47.26923 16.60699 19209 ft 408 kts 182°
2026-04-25 17:50 47.24083 16.60822 19606 ft 410 kts 182°
2026-04-25 17:50 47.21213 16.60946 19997 ft 412 kts 182°
2026-04-25 17:51 47.18357 16.61069 20388 ft 414 kts 182°
2026-04-25 17:51 47.15481 16.61192 20782 ft 416 kts 182°
2026-04-25 17:51 47.12594 16.61316 21145 ft 418 kts 182°
2026-04-25 17:51 47.09700 16.61442 21517 ft 420 kts 182°
2026-04-25 17:52 47.06784 16.61568 21883 ft 421 kts 182°
2026-04-25 17:52 47.05795 16.61612 22004 ft 422 kts 182°
2026-04-25 17:52 47.00903 16.61820 22593 ft 424 kts 182°
2026-04-25 17:52 46.97937 16.61946 22907 ft 426 kts 182°
2026-04-25 17:53 46.94980 16.62074 23175 ft 428 kts 182°
2026-04-25 17:53 46.91958 16.62202 23513 ft 430 kts 182°
2026-04-25 17:53 46.88974 16.62329 23842 ft 431 kts 182°
2026-04-25 17:53 46.85956 16.62458 24149 ft 433 kts 182°
2026-04-25 17:54 46.82957 16.62596 24437 ft 436 kts 181°
2026-04-25 17:54 46.79913 16.62921 24722 ft 439 kts 178°
2026-04-25 17:54 46.76860 16.63479 25005 ft 442 kts 176°
2026-04-25 17:54 46.73810 16.64066 25286 ft 444 kts 176°
2026-04-25 17:55 46.70733 16.64657 25565 ft 445 kts 176°
2026-04-25 17:55 46.67664 16.65243 25828 ft 447 kts 176°
2026-04-25 17:55 46.64581 16.65831 26096 ft 449 kts 176°
2026-04-25 17:55 46.61477 16.66423 26378 ft 450 kts 176°
2026-04-25 17:56 46.58408 16.67006 26627 ft 451 kts 176°
2026-04-25 17:56 46.55271 16.67600 26863 ft 453 kts 176°
2026-04-25 17:56 46.52149 16.68190 27092 ft 455 kts 176°
2026-04-25 17:56 46.49027 16.68781 27317 ft 457 kts 176°
2026-04-25 17:57 46.45839 16.69385 27602 ft 457 kts 176°
2026-04-25 17:57 46.42709 16.69641 27898 ft 451 kts 186°
2026-04-25 17:57 46.39648 16.69059 28209 ft 443 kts 197°
2026-04-25 17:57 46.38638 16.68680 28313 ft 441 kts 201°
2026-04-25 17:58 46.33992 16.65862 28818 ft 435 kts 210°
2026-04-25 17:58 46.31285 16.63988 29101 ft 434 kts 210°
2026-04-25 17:58 46.28540 16.62081 29388 ft 434 kts 210°
2026-04-25 17:58 46.25830 16.60205 29677 ft 433 kts 210°
2026-04-25 17:59 46.23129 16.58344 29965 ft 433 kts 210°
2026-04-25 17:59 46.20400 16.56470 30273 ft 432 kts 210°
2026-04-25 17:59 46.17699 16.54621 30561 ft 431 kts 210°
2026-04-25 17:59 46.15007 16.52783 30848 ft 430 kts 210°
2026-04-25 18:00 46.12317 16.50949 31124 ft 429 kts 210°
2026-04-25 18:00 46.09634 16.49123 31352 ft 429 kts 210°
2026-04-25 18:00 46.06905 16.47266 31547 ft 430 kts 210°
2026-04-25 18:00 46.04207 16.45434 31718 ft 432 kts 210°
2026-04-25 18:01 46.01495 16.43594 31906 ft 432 kts 210°
2026-04-25 18:01 45.98793 16.41763 32096 ft 433 kts 210°
2026-04-25 18:01 45.96048 16.39905 32289 ft 434 kts 210°
2026-04-25 18:01 45.93326 16.38065 32469 ft 434 kts 210°
2026-04-25 18:02 45.90603 16.36226 32650 ft 435 kts 210°
2026-04-25 18:02 45.87867 16.34381 32783 ft 436 kts 209°
2026-04-25 18:02 45.85124 16.32533 32326 ft 437 kts 209°
2026-04-25 18:03 45.79612 16.28824 32235 ft 436 kts 209°
2026-04-25 18:03 45.74081 16.25112 32565 ft 438 kts 209°
2026-04-25 18:03 45.71355 16.23287 32859 ft 436 kts 209°
2026-04-25 18:04 45.68611 16.21450 32961 ft 436 kts 209°
2026-04-25 18:04 45.63112 16.17772 32971 ft 439 kts 209°
2026-04-25 18:05 45.57538 16.14051 32972 ft 447 kts 209°
2026-04-25 18:05 45.51889 16.10291 32974 ft 453 kts 209°
2026-04-25 18:06 45.46153 16.06484 32976 ft 459 kts 208°
2026-04-25 18:06 45.40356 16.02644 32981 ft 461 kts 208°
2026-04-25 18:07 45.34543 15.98799 32986 ft 461 kts 208°
2026-04-25 18:07 45.28727 15.94959 32980 ft 461 kts 208°
2026-04-25 18:08 45.22938 15.91156 32976 ft 463 kts 207°
2026-04-25 18:08 45.16981 15.87644 32988 ft 464 kts 206°
2026-04-25 18:09 45.11038 15.84167 32994 ft 463 kts 206°
2026-04-25 18:09 45.05091 15.80691 32994 ft 463 kts 206°
2026-04-25 18:10 44.99139 15.77218 33000 ft 464 kts 206°
2026-04-25 18:10 44.93190 15.73766 33001 ft 464 kts 206°
2026-04-25 18:11 44.87186 15.70315 33005 ft 464 kts 206°
2026-04-25 18:11 44.81213 15.66888 33012 ft 464 kts 206°
2026-04-25 18:12 44.75278 15.63486 33023 ft 464 kts 206°
2026-04-25 18:12 44.69280 15.60051 33030 ft 465 kts 206°
2026-04-25 18:13 44.63302 15.56642 33031 ft 466 kts 205°
2026-04-25 18:13 44.57158 15.53747 33032 ft 469 kts 199°
2026-04-25 18:14 44.47515 15.51014 33025 ft 472 kts 193°
2026-04-25 18:14 44.41047 15.49506 33019 ft 471 kts 193°
2026-04-25 18:15 44.34598 15.48002 33010 ft 472 kts 193°
2026-04-25 18:15 44.28106 15.46491 33006 ft 472 kts 193°
2026-04-25 18:16 44.21615 15.44984 33003 ft 473 kts 193°
2026-04-25 18:17 44.11921 15.42741 33005 ft 473 kts 193°
2026-04-25 18:17 44.05452 15.41249 33005 ft 473 kts 193°
2026-04-25 18:18 43.98951 15.39753 33005 ft 472 kts 192°
2026-04-25 18:18 43.92463 15.38263 33004 ft 472 kts 192°
2026-04-25 18:19 43.85987 15.36778 33003 ft 473 kts 192°
2026-04-25 18:19 43.79505 15.35298 33002 ft 473 kts 192°
2026-04-25 18:20 43.73001 15.33812 33002 ft 473 kts 191°
2026-04-25 18:20 43.66495 15.32332 33001 ft 473 kts 191°
2026-04-25 18:21 43.60049 15.30868 33001 ft 473 kts 191°
2026-04-25 18:21 43.53576 15.29400 33001 ft 473 kts 191°
2026-04-25 18:22 43.47073 15.27930 33001 ft 473 kts 191°
2026-04-25 18:22 43.40580 15.26465 33001 ft 473 kts 191°
2026-04-25 18:23 43.34087 15.25002 33001 ft 473 kts 191°
2026-04-25 18:23 43.27602 15.23544 33001 ft 473 kts 191°
2026-04-25 18:24 43.21137 15.22095 33001 ft 473 kts 191°
2026-04-25 18:24 43.14635 15.20641 33001 ft 473 kts 191°
2026-04-25 18:25 43.08145 15.19192 33001 ft 472 kts 191°
2026-04-25 18:25 43.01693 15.17754 33001 ft 473 kts 191°
2026-04-25 18:26 42.95207 15.16311 33004 ft 472 kts 191°
2026-04-25 18:26 42.88725 15.14873 33010 ft 472 kts 191°
2026-04-25 18:27 42.82221 15.13435 33017 ft 472 kts 191°
2026-04-25 18:27 42.75770 15.12009 33021 ft 471 kts 190°
2026-04-25 18:28 42.69278 15.10578 33021 ft 471 kts 190°
2026-04-25 18:28 42.62820 15.09158 33021 ft 471 kts 190°
2026-04-25 18:29 42.53139 15.07034 33021 ft 472 kts 190°
2026-04-25 18:30 42.40171 15.04199 33021 ft 471 kts 190°
2026-04-25 18:30 42.33731 15.02796 33022 ft 471 kts 190°
2026-04-25 18:31 42.27241 15.01385 33021 ft 471 kts 190°
2026-04-25 18:31 42.20801 14.99989 33023 ft 472 kts 190°
2026-04-25 18:32 42.14337 14.98588 33023 ft 472 kts 189°
2026-04-25 18:32 42.07829 14.97182 33025 ft 472 kts 189°
2026-04-25 18:33 42.01385 14.95790 33023 ft 472 kts 189°
2026-04-25 18:33 41.94899 14.94394 33026 ft 472 kts 189°
2026-04-25 18:34 41.88398 14.92998 33027 ft 472 kts 189°
2026-04-25 18:34 41.81928 14.91613 33035 ft 472 kts 189°
2026-04-25 18:35 41.75428 14.90223 33037 ft 471 kts 189°
2026-04-25 18:35 41.68961 14.88843 33043 ft 472 kts 189°
2026-04-25 18:36 41.62472 14.87458 33049 ft 472 kts 189°
2026-04-25 18:36 41.55997 14.86080 33060 ft 472 kts 189°
2026-04-25 18:37 41.49549 14.84710 33066 ft 471 kts 189°
2026-04-25 18:37 41.43084 14.83338 33071 ft 471 kts 189°
2026-04-25 18:38 41.36585 14.81963 33066 ft 471 kts 189°
2026-04-25 18:38 41.30145 14.80559 33061 ft 471 kts 191°
2026-04-25 18:39 41.23725 14.78791 33058 ft 472 kts 191°
2026-04-25 18:39 41.17312 14.77021 33056 ft 472 kts 191°
2026-04-25 18:40 41.10891 14.75250 33057 ft 472 kts 191°
2026-04-25 18:40 41.04471 14.73480 33057 ft 472 kts 191°
2026-04-25 18:41 40.98035 14.71706 33059 ft 472 kts 191°
2026-04-25 18:41 40.94828 14.70824 33051 ft 460 kts 191°
2026-04-25 18:41 40.91778 14.69984 33060 ft 448 kts 191°
2026-04-25 18:42 40.87699 14.68863 33064 ft 447 kts 191°
2026-04-25 18:42 40.79575 14.66637 33072 ft 446 kts 191°
2026-04-25 18:43 40.73544 14.64989 33075 ft 446 kts 191°
2026-04-25 18:43 40.67466 14.63331 33074 ft 446 kts 191°
2026-04-25 18:44 40.61353 14.61665 33071 ft 446 kts 191°
2026-04-25 18:44 40.55276 14.60013 33069 ft 446 kts 191°
2026-04-25 18:45 40.49219 14.58370 33071 ft 446 kts 191°
2026-04-25 18:45 40.43129 14.56720 33072 ft 446 kts 191°
2026-04-25 18:46 40.37011 14.55066 33076 ft 446 kts 191°
2026-04-25 18:46 40.30954 14.53432 33077 ft 447 kts 191°
2026-04-25 18:47 40.24880 14.51794 33079 ft 447 kts 191°
2026-04-25 18:47 40.18776 14.50153 33079 ft 447 kts 191°
2026-04-25 18:48 40.12858 14.48564 33081 ft 447 kts 191°
2026-04-25 18:48 40.06768 14.46932 33082 ft 447 kts 191°
2026-04-25 18:49 40.00694 14.45309 33084 ft 447 kts 191°
2026-04-25 18:49 39.94627 14.43691 33086 ft 447 kts 191°
2026-04-25 18:50 39.88520 14.42062 33089 ft 447 kts 191°
2026-04-25 18:50 39.82438 14.40444 33088 ft 447 kts 191°
2026-04-25 18:51 39.77358 14.39094 33089 ft 447 kts 191°
2026-04-25 18:51 39.70232 14.37206 33091 ft 447 kts 191°
2026-04-25 18:52 39.64158 14.35599 33092 ft 447 kts 191°
2026-04-25 18:52 39.58082 14.33995 33093 ft 447 kts 190°
2026-04-25 18:53 39.51978 14.32384 33095 ft 447 kts 190°
2026-04-25 18:53 39.45888 14.30779 33096 ft 447 kts 190°
2026-04-25 18:54 39.36745 14.28375 33100 ft 447 kts 190°
2026-04-25 18:55 39.30653 14.26778 33100 ft 447 kts 190°
2026-04-25 18:55 39.24544 14.25272 33102 ft 447 kts 189°
2026-04-25 18:56 39.18457 14.23805 33099 ft 447 kts 189°
2026-04-25 18:56 39.12340 14.22325 33105 ft 447 kts 189°
2026-04-25 18:57 39.06235 14.20845 33104 ft 447 kts 189°
2026-04-25 18:57 39.00149 14.19371 33106 ft 447 kts 189°
2026-04-25 18:58 38.94044 14.17896 33104 ft 447 kts 189°
2026-04-25 18:58 38.84769 14.17189 33104 ft 445 kts 173°
2026-04-25 18:59 38.78676 14.18741 32973 ft 446 kts 162°
2026-04-25 18:59 38.73000 14.21712 32451 ft 440 kts 154°
2026-04-25 19:00 38.67471 14.25057 31925 ft 436 kts 153°
2026-04-25 19:00 38.64748 14.26704 31665 ft 436 kts 154°
2026-04-25 19:01 38.59248 14.30014 30777 ft 439 kts 154°
2026-04-25 19:01 38.56463 14.31683 30106 ft 440 kts 154°
2026-04-25 19:01 38.53722 14.33324 29373 ft 440 kts 154°
2026-04-25 19:01 38.50941 14.34986 28609 ft 441 kts 154°
2026-04-25 19:02 38.45384 14.38304 27064 ft 442 kts 154°
2026-04-25 19:02 38.42626 14.39947 26534 ft 437 kts 154°
2026-04-25 19:02 38.39872 14.41585 26018 ft 432 kts 154°
2026-04-25 19:03 38.36297 14.43713 25332 ft 426 kts 154°
2026-04-25 19:03 38.31843 14.46359 24461 ft 419 kts 154°
2026-04-25 19:03 38.29212 14.47919 23929 ft 416 kts 154°
2026-04-25 19:04 38.23608 14.48975 22677 ft 416 kts 184°
2026-04-25 19:04 38.20710 14.48624 21838 ft 418 kts 185°
2026-04-25 19:05 38.15026 14.47952 20608 ft 405 kts 184°
2026-04-25 19:05 38.09426 14.47453 19335 ft 404 kts 182°
2026-04-25 19:05 38.06592 14.47233 18665 ft 405 kts 182°
2026-04-25 19:06 38.03793 14.47025 18000 ft 407 kts 182°
2026-04-25 19:06 37.98123 14.46618 16653 ft 409 kts 182°
2026-04-25 19:06 37.95298 14.46416 16019 ft 408 kts 182°
2026-04-25 19:07 37.89687 14.46017 14929 ft 401 kts 182°
2026-04-25 19:07 37.86905 14.45820 14553 ft 393 kts 182°
2026-04-25 19:08 37.81537 14.45438 13654 ft 380 kts 181°
2026-04-25 19:08 37.78943 14.45255 13043 ft 372 kts 181°
2026-04-25 19:09 37.71144 14.44836 11673 ft 373 kts 180°
2026-04-25 19:09 37.69423 14.44760 11385 ft 372 kts 180°
2026-04-25 19:09 37.63518 14.44508 10509 ft 344 kts 180°
2026-04-25 19:10 37.61232 14.44411 10365 ft 318 kts 180°
2026-04-25 19:10 37.59089 14.44321 10266 ft 297 kts 180°
2026-04-25 19:10 37.57087 14.44239 10177 ft 283 kts 180°
2026-04-25 19:10 37.55163 14.44160 10093 ft 270 kts 180°
2026-04-25 19:11 37.53312 14.44086 10020 ft 263 kts 180°
2026-04-25 19:11 37.51501 14.44050 9938 ft 255 kts 176°
2026-04-25 19:11 37.49802 14.44204 9878 ft 240 kts 172°
2026-04-25 19:11 37.48128 14.44436 9460 ft 238 kts 172°
2026-04-25 19:12 37.46500 14.44672 9094 ft 235 kts 172°
2026-04-25 19:12 37.44908 14.44901 8772 ft 229 kts 172°
2026-04-25 19:12 37.43370 14.45274 8464 ft 219 kts 156°
2026-04-25 19:12 37.42219 14.46383 8138 ft 206 kts 126°
2026-04-25 19:13 37.41652 14.47967 7833 ft 194 kts 100°
2026-04-25 19:13 37.41424 14.49605 7533 ft 184 kts 97°
2026-04-25 19:13 37.41407 14.51115 7268 ft 163 kts 78°
2026-04-25 19:13 37.41617 14.52476 7147 ft 158 kts 75°
2026-04-25 19:14 37.41869 14.53830 7098 ft 158 kts 73°
2026-04-25 19:14 37.41958 14.54267 7101 ft 158 kts 73°
2026-04-25 19:14 37.42440 14.56490 7040 ft 158 kts 72°
2026-04-25 19:14 37.42746 14.57805 6965 ft 157 kts 71°
2026-04-25 19:15 37.43045 14.59134 6860 ft 158 kts 78°
2026-04-25 19:15 37.43177 14.60507 6727 ft 158 kts 83°
2026-04-25 19:15 37.43232 14.61878 6490 ft 158 kts 85°
2026-04-25 19:15 37.43274 14.63259 6224 ft 157 kts 85°
2026-04-25 19:16 37.43325 14.64626 5958 ft 157 kts 84°
2026-04-25 19:16 37.43388 14.65995 5692 ft 156 kts 84°
2026-04-25 19:16 37.43463 14.67360 5427 ft 156 kts 83°
2026-04-25 19:16 37.43547 14.68709 5162 ft 155 kts 83°
2026-04-25 19:17 37.43639 14.70046 4900 ft 154 kts 83°
2026-04-25 19:17 37.43738 14.71391 4634 ft 154 kts 82°
2026-04-25 19:17 37.43843 14.72727 4368 ft 153 kts 82°
2026-04-25 19:17 37.43950 14.74057 4104 ft 153 kts 82°
2026-04-25 19:18 37.44060 14.75391 3819 ft 153 kts 82°
2026-04-25 19:18 37.44171 14.76704 3591 ft 152 kts 82°
2026-04-25 19:18 37.44284 14.78032 3423 ft 152 kts 82°
2026-04-25 19:18 37.44397 14.79358 3276 ft 152 kts 82°
2026-04-25 19:19 37.44507 14.80669 3216 ft 151 kts 82°
2026-04-25 19:19 37.44618 14.81978 3243 ft 151 kts 82°
2026-04-25 19:19 37.44729 14.83301 3269 ft 151 kts 82°
2026-04-25 19:19 37.44804 14.84185 3263 ft 151 kts 82°
2026-04-25 19:20 37.44949 14.85936 3038 ft 151 kts 82°
2026-04-25 19:20 37.45057 14.87233 2839 ft 150 kts 82°
2026-04-25 19:20 37.45166 14.88543 2639 ft 150 kts 82°
2026-04-25 19:20 37.45274 14.89841 2442 ft 150 kts 82°
2026-04-25 19:21 37.45383 14.91152 2244 ft 150 kts 82°
2026-04-25 19:21 37.45599 14.93755 1851 ft 149 kts 82°
2026-04-25 19:21 37.45707 14.95054 1655 ft 149 kts 82°
2026-04-25 19:22 37.45813 14.96339 1462 ft 148 kts 82°
2026-04-25 19:22 37.45922 14.97637 1265 ft 147 kts 83°
2026-04-25 19:22 37.46135 15.00177 881 ft 145 kts 83°
2026-04-25 19:23 37.46240 15.01433 689 ft 144 kts 84°
2026-04-25 19:23 37.46455 15.03943 346 ft 143 kts 84°
2026-04-25 19:23 37.46558 15.05179 114 ft 141 kts 84°
2026-04-25 19:24 37.46656 15.06350 35 ft 107 kts 84°
2026-04-25 19:24 37.46703 15.06922 30 ft 27 kts 83°
2026-04-25 19:24 37.46737 15.07329 31 ft 22 kts 85°
2026-04-25 19:25 37.46807 15.07685 32 ft 20 kts 60°
2026-04-25 19:25 37.46875 15.07803 32 ft 12 kts 38°
2026-04-25 19:25 37.46936 15.07761 32 ft 13 kts 273°
2026-04-25 19:26 37.46923 15.07598 32 ft 21 kts 263°